Time,TemperatureF,DewpointF,PressureIn,WindDirection,WindDirectionDegrees,WindSpeedMPH,WindSpeedGustMPH,Humidity,HourlyPrecipIn,Conditions,Clouds,dailyrainin,SoftwareType,DateUTC
2013-07-02 00:01:00,70.7,66.9,30.11,SW,225,6.0,6.0,88,0.00,,,0.00,meteohub,2013-07-02 04:01:00,
2013-07-02 00:02:00,70.9,67.1,30.11,SW,225,6.0,6.0,88,0.00,,,0.00,meteohub,2013-07-02 04:02:00,
2013-07-02 00:03:00,70.9,67.1,30.11,SW,225,7.0,7.0,88,0.00,,,0.00,meteohub,2013-07-02 04:03:00,
2013-07-02 00:04:00,70.9,67.1,30.11,SW,225,7.0,7.0,88,0.00,,,0.00,meteohub,2013-07-02 04:04:00,
2013-07-02 00:09:00,70.9,67.1,30.11,SW,225,7.0,7.0,88,0.00,,,0.00,meteohub,2013-07-02 04:09:00,
2013-07-02 00:14:00,71.1,67.3,30.11,West,270,4.0,7.0,88,0.00,,,0.00,meteohub,2013-07-02 04:14:00,
2013-07-02 00:19:00,70.9,67.1,30.11,WSW,248,4.0,7.0,88,0.00,,,0.00,meteohub,2013-07-02 04:19:00,
2013-07-02 00:24:00,71.1,67.3,30.11,SW,225,7.0,7.0,88,0.00,,,0.00,meteohub,2013-07-02 04:24:00,
2013-07-02 00:30:00,71.1,67.3,30.11,WSW,248,8.0,8.0,88,0.00,,,0.00,meteohub,2013-07-02 04:30:00,
2013-07-02 00:35:00,70.9,67.1,30.11,WSW,248,7.0,8.0,88,0.00,,,0.00,meteohub,2013-07-02 04:35:00,
2013-07-02 00:40:00,70.9,67.1,30.11,SW,225,7.0,12.0,88,0.00,,,0.00,meteohub,2013-07-02 04:40:00,
2013-07-02 00:45:00,71.1,67.3,30.11,WSW,248,13.0,13.0,88,0.00,,,0.00,meteohub,2013-07-02 04:45:00,
2013-07-02 00:50:00,71.1,67.3,30.11,WSW,248,15.0,15.0,88,0.00,,,0.00,meteohub,2013-07-02 04:50:00,
2013-07-02 00:55:00,71.1,67.3,30.11,WSW,248,15.0,15.0,88,0.00,,,0.00,meteohub,2013-07-02 04:55:00,
2013-07-02 01:00:00,71.1,67.3,30.11,West,270,9.0,17.0,88,0.00,,,0.00,meteohub,2013-07-02 05:00:00,
2013-07-02 01:05:00,70.9,67.1,30.12,WSW,248,12.0,17.0,88,0.00,,,0.00,meteohub,2013-07-02 05:05:00,
2013-07-02 01:10:00,71.1,67.3,30.12,WSW,248,12.0,17.0,88,0.00,,,0.00,meteohub,2013-07-02 05:10:00,
2013-07-02 01:15:00,71.1,67.3,30.12,SW,225,14.0,14.0,88,0.00,,,0.00,meteohub,2013-07-02 05:15:00,
2013-07-02 01:21:00,70.9,67.1,30.12,SW,225,10.0,14.0,88,0.00,,,0.00,meteohub,2013-07-02 05:21:00,
2013-07-02 01:26:00,71.1,67.3,30.13,SW,225,10.0,14.0,88,0.00,,,0.00,meteohub,2013-07-02 05:26:00,
2013-07-02 01:31:00,70.9,67.1,30.13,SW,225,7.0,14.0,88,0.00,,,0.00,meteohub,2013-07-02 05:31:00,
2013-07-02 01:36:00,71.1,67.3,30.13,WSW,248,13.0,13.0,88,0.00,,,0.00,meteohub,2013-07-02 05:36:00,
2013-07-02 01:41:00,71.1,67.3,30.13,SW,225,12.0,13.0,88,0.00,,,0.00,meteohub,2013-07-02 05:41:00,
2013-07-02 01:46:00,71.1,67.3,30.12,WSW,248,10.0,13.0,88,0.00,,,0.00,meteohub,2013-07-02 05:46:00,
2013-07-02 01:51:00,71.1,67.3,30.12,SSW,203,9.0,13.0,88,0.00,,,0.00,meteohub,2013-07-02 05:51:00,
2013-07-02 01:56:00,71.1,67.3,30.12,WSW,248,9.0,12.0,88,0.00,,,0.00,meteohub,2013-07-02 05:56:00,
2013-07-02 02:01:00,71.1,67.3,30.12,WSW,248,8.0,11.0,88,0.00,,,0.00,meteohub,2013-07-02 06:01:00,
2013-07-02 02:06:00,71.1,67.3,30.12,WSW,248,7.0,11.0,88,0.00,,,0.00,meteohub,2013-07-02 06:06:00,
2013-07-02 02:12:00,71.1,67.3,30.12,SW,225,5.0,10.0,88,0.00,,,0.00,meteohub,2013-07-02 06:12:00,
2013-07-02 02:17:00,71.1,67.3,30.12,WSW,248,4.0,10.0,88,0.00,,,0.00,meteohub,2013-07-02 06:17:00,
2013-07-02 02:22:00,71.1,67.3,30.12,WSW,248,6.0,7.0,88,0.00,,,0.00,meteohub,2013-07-02 06:22:00,
2013-07-02 02:27:00,71.1,67.3,30.12,WSW,248,6.0,7.0,88,0.00,,,0.00,meteohub,2013-07-02 06:27:00,
2013-07-02 02:32:00,71.1,67.3,30.12,WSW,248,5.0,7.0,88,0.00,,,0.00,meteohub,2013-07-02 06:32:00,
2013-07-02 02:37:00,71.1,67.3,30.12,SW,225,5.0,6.0,88,0.00,,,0.00,meteohub,2013-07-02 06:37:00,
2013-07-02 02:42:00,71.1,67.3,30.12,SW,225,6.0,6.0,88,0.00,,,0.00,meteohub,2013-07-02 06:42:00,
2013-07-02 02:47:00,71.1,67.3,30.11,SW,225,8.0,8.0,88,0.00,,,0.00,meteohub,2013-07-02 06:47:00,
2013-07-02 02:52:00,71.1,67.3,30.11,SW,225,7.0,8.0,88,0.00,,,0.00,meteohub,2013-07-02 06:52:00,
2013-07-02 02:57:00,71.1,67.3,30.11,SW,225,6.0,8.0,88,0.00,,,0.00,meteohub,2013-07-02 06:57:00,
2013-07-02 03:02:00,71.1,67.3,30.11,WSW,248,10.0,11.0,88,0.00,,,0.00,meteohub,2013-07-02 07:02:00,
2013-07-02 03:07:00,71.1,67.3,30.11,WSW,248,9.0,11.0,88,0.00,,,0.00,meteohub,2013-07-02 07:07:00,
2013-07-02 03:12:00,71.1,67.3,30.11,WSW,248,9.0,10.0,88,0.00,,,0.00,meteohub,2013-07-02 07:12:00,
2013-07-02 03:17:00,71.1,67.3,30.11,WSW,248,11.0,11.0,88,0.00,,,0.00,meteohub,2013-07-02 07:17:00,
2013-07-02 03:22:00,71.1,67.3,30.11,WSW,248,10.0,11.0,88,0.00,,,0.00,meteohub,2013-07-02 07:22:00,
2013-07-02 03:27:00,70.9,67.1,30.11,WSW,248,10.0,12.0,88,0.00,,,0.00,meteohub,2013-07-02 07:27:00,
2013-07-02 03:32:00,70.9,67.1,30.11,WSW,248,10.0,12.0,88,0.00,,,0.00,meteohub,2013-07-02 07:32:00,
2013-07-02 03:37:00,70.9,67.1,30.11,WSW,248,7.0,12.0,88,0.00,,,0.00,meteohub,2013-07-02 07:37:00,
2013-07-02 03:42:00,70.9,67.1,30.11,WSW,248,9.0,11.0,88,0.00,,,0.00,meteohub,2013-07-02 07:42:00,
2013-07-02 03:47:00,70.9,67.5,30.12,SW,225,8.0,10.0,89,0.00,,,0.00,meteohub,2013-07-02 07:47:00,
2013-07-02 03:52:00,70.9,67.5,30.12,WSW,248,8.0,10.0,89,0.00,,,0.00,meteohub,2013-07-02 07:52:00,
2013-07-02 03:57:00,70.9,67.1,30.12,WSW,248,6.0,10.0,88,0.00,,,0.00,meteohub,2013-07-02 07:57:00,
2013-07-02 04:02:00,70.9,67.5,30.12,West,270,5.0,10.0,89,0.00,,,0.00,meteohub,2013-07-02 08:02:00,
2013-07-02 04:07:00,70.9,67.5,30.12,WSW,248,5.0,8.0,89,0.00,,,0.00,meteohub,2013-07-02 08:07:00,
2013-07-02 04:12:00,70.9,67.5,30.12,WSW,248,4.0,6.0,89,0.00,,,0.00,meteohub,2013-07-02 08:12:00,
2013-07-02 04:17:00,70.9,67.5,30.12,WSW,248,2.0,6.0,89,0.00,,,0.00,meteohub,2013-07-02 08:17:00,
2013-07-02 04:22:00,70.9,67.5,30.12,SW,225,7.0,7.0,89,0.00,,,0.00,meteohub,2013-07-02 08:22:00,
2013-07-02 04:27:00,71.1,67.6,30.12,WSW,248,5.0,7.0,89,0.00,,,0.00,meteohub,2013-07-02 08:27:00,
2013-07-02 04:33:00,71.2,67.8,30.12,SW,225,12.0,12.0,89,0.00,,,0.00,meteohub,2013-07-02 08:33:00,
2013-07-02 04:38:00,71.4,68.0,30.12,WSW,248,9.0,12.0,89,0.00,,,0.00,meteohub,2013-07-02 08:38:00,
2013-07-02 04:43:00,71.4,68.0,30.12,WSW,248,9.0,12.0,89,0.00,,,0.00,meteohub,2013-07-02 08:43:00,
2013-07-02 04:48:00,71.2,67.8,30.12,SW,225,6.0,12.0,89,0.00,,,0.00,meteohub,2013-07-02 08:48:00,
2013-07-02 04:53:00,71.4,68.0,30.12,WSW,248,4.0,11.0,89,0.00,,,0.00,meteohub,2013-07-02 08:53:00,
2013-07-02 04:58:00,71.4,68.0,30.12,SSW,203,11.0,11.0,89,0.00,,,0.00,meteohub,2013-07-02 08:58:00,
2013-07-02 05:03:00,71.2,67.8,30.13,WSW,248,9.0,9.0,89,0.00,,,0.00,meteohub,2013-07-02 09:03:00,
2013-07-02 05:08:00,71.2,67.8,30.13,WSW,248,11.0,11.0,89,0.00,,,0.00,meteohub,2013-07-02 09:08:00,
2013-07-02 05:13:00,71.1,67.6,30.13,SW,225,12.0,12.0,89,0.00,,,0.00,meteohub,2013-07-02 09:13:00,
2013-07-02 05:18:00,71.1,67.6,30.13,SW,225,13.0,13.0,89,0.00,,,0.00,meteohub,2013-07-02 09:18:00,
2013-07-02 05:23:00,71.1,67.6,30.12,SSW,203,18.0,18.0,89,0.00,,,0.00,meteohub,2013-07-02 09:23:00,
2013-07-02 05:29:00,71.1,67.6,30.12,WSW,248,12.0,13.0,89,0.00,,,0.00,meteohub,2013-07-02 09:29:00,
2013-07-02 05:34:00,71.4,68.0,30.12,WSW,248,13.0,18.0,89,0.00,,,0.00,meteohub,2013-07-02 09:34:00,
2013-07-02 05:39:00,71.4,68.0,30.12,WSW,248,9.0,18.0,89,0.00,,,0.00,meteohub,2013-07-02 09:39:00,
2013-07-02 05:44:00,71.4,68.0,30.14,SSW,203,11.0,13.0,89,0.00,,,0.00,meteohub,2013-07-02 09:44:00,
2013-07-02 05:49:00,71.4,68.0,30.14,SW,225,14.0,14.0,89,0.00,,,0.00,meteohub,2013-07-02 09:49:00,
2013-07-02 05:54:00,71.2,67.8,30.14,WSW,248,11.0,14.0,89,0.00,,,0.00,meteohub,2013-07-02 09:54:00,
2013-07-02 05:59:00,71.4,68.0,30.14,SW,225,11.0,14.0,89,0.00,,,0.00,meteohub,2013-07-02 09:59:00,
2013-07-02 06:04:00,71.1,67.6,30.14,NNE,23,7.0,14.0,89,0.00,,,0.00,meteohub,2013-07-02 10:04:00,
2013-07-02 06:09:00,71.1,67.6,30.14,WSW,248,7.0,11.0,89,0.00,,,0.00,meteohub,2013-07-02 10:09:00,
2013-07-02 06:14:00,71.4,68.0,30.14,WSW,248,8.0,11.0,89,0.00,,,0.00,meteohub,2013-07-02 10:14:00,
2013-07-02 06:20:00,71.2,67.8,30.14,WSW,248,4.0,11.0,89,0.00,,,0.00,meteohub,2013-07-02 10:20:00,
2013-07-02 06:25:00,71.2,67.8,30.14,West,270,4.0,8.0,89,0.00,,,0.00,meteohub,2013-07-02 10:25:00,
2013-07-02 06:30:00,71.6,68.2,30.14,West,270,4.0,8.0,89,0.00,,,0.00,meteohub,2013-07-02 10:30:00,
2013-07-02 06:35:00,71.6,68.2,30.14,WSW,248,8.0,8.0,89,0.00,,,0.00,meteohub,2013-07-02 10:35:00,
2013-07-02 06:40:00,71.8,68.4,30.14,WSW,248,6.0,9.0,89,0.00,,,0.00,meteohub,2013-07-02 10:40:00,
2013-07-02 06:45:00,71.8,68.0,30.14,WSW,248,6.0,9.0,88,0.00,,,0.00,meteohub,2013-07-02 10:45:00,
2013-07-02 06:50:00,72.1,68.4,30.14,WSW,248,6.0,8.0,88,0.00,,,0.00,meteohub,2013-07-02 10:50:00,
2013-07-02 06:55:00,72.3,68.5,30.14,WSW,248,8.0,8.0,88,0.00,,,0.00,meteohub,2013-07-02 10:55:00,
2013-07-02 07:00:00,72.9,69.1,30.14,SSW,203,7.0,10.0,88,0.00,,,0.00,meteohub,2013-07-02 11:00:00,
2013-07-02 07:06:00,72.9,69.1,30.15,SW,225,10.0,11.0,88,0.00,,,0.00,meteohub,2013-07-02 11:06:00,
2013-07-02 07:11:00,72.9,69.1,30.15,SW,225,10.0,11.0,88,0.00,,,0.00,meteohub,2013-07-02 11:11:00,
2013-07-02 07:16:00,72.9,69.1,30.15,SW,225,12.0,12.0,88,0.00,,,0.00,meteohub,2013-07-02 11:16:00,
2013-07-02 07:21:00,73.0,68.9,30.15,SW,225,10.0,12.0,87,0.00,,,0.00,meteohub,2013-07-02 11:21:00,
2013-07-02 07:26:00,73.2,69.1,30.15,SW,225,9.0,13.0,87,0.00,,,0.00,meteohub,2013-07-02 11:26:00,
2013-07-02 07:31:00,73.2,69.1,30.15,WSW,248,13.0,13.0,87,0.00,,,0.00,meteohub,2013-07-02 11:31:00,
2013-07-02 07:36:00,73.2,69.1,30.15,West,270,12.0,13.0,87,0.00,,,0.00,meteohub,2013-07-02 11:36:00,
2013-07-02 07:41:00,72.9,68.7,30.15,SW,225,11.0,13.0,87,0.00,,,0.00,meteohub,2013-07-02 11:41:00,
2013-07-02 07:46:00,72.9,68.7,30.16,SW,225,13.0,13.0,87,0.00,,,0.00,meteohub,2013-07-02 11:46:00,
2013-07-02 07:51:00,72.3,67.8,30.16,WSW,248,14.0,14.0,86,0.00,,,0.00,meteohub,2013-07-02 11:51:00,
2013-07-02 07:56:00,72.5,68.4,30.16,WSW,248,9.0,14.0,87,0.00,,,0.00,meteohub,2013-07-02 11:56:00,
2013-07-02 08:02:00,72.5,68.4,30.16,WSW,248,15.0,15.0,87,0.00,,,0.00,meteohub,2013-07-02 12:02:00,
2013-07-02 08:07:00,72.3,68.2,30.16,WSW,248,12.0,15.0,87,0.00,,,0.00,meteohub,2013-07-02 12:07:00,
2013-07-02 08:12:00,72.1,68.0,30.16,WSW,248,12.0,16.0,87,0.00,,,0.00,meteohub,2013-07-02 12:12:00,
2013-07-02 08:17:00,72.3,68.2,30.16,SW,225,9.0,16.0,87,0.00,,,0.00,meteohub,2013-07-02 12:17:00,
2013-07-02 08:22:00,72.5,68.4,30.16,WSW,248,12.0,14.0,87,0.00,,,0.00,meteohub,2013-07-02 12:22:00,
2013-07-02 08:27:00,72.7,68.5,30.16,WSW,248,11.0,14.0,87,0.00,,,0.00,meteohub,2013-07-02 12:27:00,
2013-07-02 08:32:00,72.9,68.7,30.16,WSW,248,15.0,15.0,87,0.00,,,0.00,meteohub,2013-07-02 12:32:00,
2013-07-02 08:37:00,73.9,69.8,30.16,SW,225,7.0,18.0,87,0.00,,,0.00,meteohub,2013-07-02 12:37:00,
2013-07-02 08:42:00,74.3,70.2,30.16,SSW,203,12.0,18.0,87,0.00,,,0.00,meteohub,2013-07-02 12:42:00,
2013-07-02 08:47:00,74.3,69.8,30.17,SW,225,14.0,15.0,86,0.00,,,0.00,meteohub,2013-07-02 12:47:00,
2013-07-02 08:52:00,74.7,70.2,30.17,SW,225,15.0,16.0,86,0.00,,,0.00,meteohub,2013-07-02 12:52:00,
2013-07-02 08:57:00,74.7,70.2,30.17,SW,225,9.0,16.0,86,0.00,,,0.00,meteohub,2013-07-02 12:57:00,
2013-07-02 09:02:00,75.2,70.7,30.17,WSW,248,10.0,16.0,86,0.00,,,0.00,meteohub,2013-07-02 13:02:00,
2013-07-02 09:07:00,75.4,70.5,30.16,WSW,248,9.0,15.0,85,0.00,,,0.00,meteohub,2013-07-02 13:07:00,
2013-07-02 09:12:00,75.6,70.7,30.16,WSW,248,11.0,14.0,85,0.00,,,0.00,meteohub,2013-07-02 13:12:00,
2013-07-02 09:17:00,75.7,70.5,30.16,WSW,248,10.0,11.0,84,0.00,,,0.00,meteohub,2013-07-02 13:17:00,
2013-07-02 09:22:00,75.4,70.2,30.17,SW,225,9.0,15.0,84,0.00,,,0.00,meteohub,2013-07-02 13:22:00,
2013-07-02 09:27:00,75.2,70.0,30.17,SSW,203,10.0,15.0,84,0.00,,,0.00,meteohub,2013-07-02 13:27:00,
2013-07-02 09:32:00,75.4,70.2,30.17,WSW,248,12.0,15.0,84,0.00,,,0.00,meteohub,2013-07-02 13:32:00,
2013-07-02 09:38:00,75.2,70.0,30.17,WSW,248,9.0,11.0,84,0.00,,,0.00,meteohub,2013-07-02 13:38:00,
2013-07-02 09:43:00,75.0,69.8,30.17,WSW,248,13.0,13.0,84,0.00,,,0.00,meteohub,2013-07-02 13:43:00,
2013-07-02 09:48:00,74.8,69.6,30.17,WSW,248,10.0,13.0,84,0.00,,,0.00,meteohub,2013-07-02 13:48:00,
2013-07-02 09:53:00,74.7,69.4,30.17,SW,225,7.0,14.0,84,0.00,,,0.00,meteohub,2013-07-02 13:53:00,
2013-07-02 09:58:00,74.7,69.4,30.17,WSW,248,8.0,14.0,84,0.00,,,0.00,meteohub,2013-07-02 13:58:00,
2013-07-02 10:03:00,74.7,69.8,30.16,SW,225,8.0,14.0,85,0.00,,,0.00,meteohub,2013-07-02 14:03:00,
2013-07-02 10:08:00,75.2,70.3,30.16,WSW,248,6.0,9.0,85,0.00,,,0.00,meteohub,2013-07-02 14:08:00,
2013-07-02 10:14:00,75.6,70.7,30.16,WSW,248,7.0,13.0,85,0.00,,,0.00,meteohub,2013-07-02 14:14:00,
2013-07-02 10:19:00,75.6,70.3,30.16,WSW,248,13.0,13.0,84,0.00,,,0.00,meteohub,2013-07-02 14:19:00,
2013-07-02 10:24:00,75.7,70.5,30.17,WSW,248,9.0,13.0,84,0.00,,,0.00,meteohub,2013-07-02 14:24:00,
2013-07-02 10:29:00,75.9,71.1,30.17,SW,225,9.0,13.0,85,0.00,,,0.00,meteohub,2013-07-02 14:29:00,
2013-07-02 10:34:00,76.8,72.0,30.17,SW,225,8.0,13.0,85,0.00,,,0.00,meteohub,2013-07-02 14:34:00,
2013-07-02 10:39:00,77.4,72.1,30.17,SW,225,9.0,13.0,84,0.00,,,0.00,meteohub,2013-07-02 14:39:00,
2013-07-02 10:45:00,77.7,72.1,30.18,WSW,248,13.0,13.0,83,0.00,,,0.00,meteohub,2013-07-02 14:45:00,
2013-07-02 10:50:00,77.9,72.3,30.18,WSW,248,11.0,13.0,83,0.00,,,0.00,meteohub,2013-07-02 14:50:00,
2013-07-02 10:55:00,77.9,72.0,30.18,WSW,248,7.0,13.0,82,0.00,,,0.00,meteohub,2013-07-02 14:55:00,
2013-07-02 11:00:00,77.5,71.6,30.18,WSW,248,9.0,13.0,82,0.00,,,0.00,meteohub,2013-07-02 15:00:00,
2013-07-02 11:05:00,77.7,71.8,30.18,WSW,248,5.0,9.0,82,0.00,,,0.00,meteohub,2013-07-02 15:05:00,
2013-07-02 11:11:00,78.1,72.1,30.18,SW,225,8.0,9.0,82,0.00,,,0.00,meteohub,2013-07-02 15:11:00,
2013-07-02 11:16:00,78.1,72.1,30.18,SW,225,5.0,8.0,82,0.00,,,0.00,meteohub,2013-07-02 15:16:00,
2013-07-02 11:21:00,77.9,71.6,30.18,SW,225,10.0,10.0,81,0.00,,,0.00,meteohub,2013-07-02 15:21:00,
2013-07-02 11:26:00,77.5,71.6,30.18,SW,225,7.0,10.0,82,0.00,,,0.00,meteohub,2013-07-02 15:26:00,
2013-07-02 11:32:00,77.0,71.1,30.18,SW,225,8.0,12.0,82,0.00,,,0.00,meteohub,2013-07-02 15:32:00,
2013-07-02 11:37:00,76.8,70.9,30.18,SW,225,6.0,12.0,82,0.00,,,0.00,meteohub,2013-07-02 15:37:00,
2013-07-02 11:42:00,76.6,71.1,30.18,WSW,248,9.0,12.0,83,0.00,,,0.00,meteohub,2013-07-02 15:42:00,
2013-07-02 11:47:00,76.5,70.9,30.18,WSW,248,6.0,10.0,83,0.00,,,0.00,meteohub,2013-07-02 15:47:00,
2013-07-02 11:52:00,76.5,70.9,30.18,SW,225,9.0,10.0,83,0.00,,,0.00,meteohub,2013-07-02 15:52:00,
2013-07-02 11:57:00,77.2,71.6,30.18,WSW,248,7.0,9.0,83,0.00,,,0.00,meteohub,2013-07-02 15:57:00,
2013-07-02 12:02:00,77.5,72.0,30.18,WSW,248,4.0,10.0,83,0.00,,,0.00,meteohub,2013-07-02 16:02:00,
2013-07-02 12:07:00,77.4,71.8,30.18,West,270,7.0,10.0,83,0.00,,,0.00,meteohub,2013-07-02 16:07:00,
2013-07-02 12:12:00,77.4,71.8,30.18,West,270,7.0,10.0,83,0.00,,,0.00,meteohub,2013-07-02 16:12:00,
2013-07-02 12:17:00,78.3,72.3,30.18,WNW,293,7.0,7.0,82,0.00,,,0.00,meteohub,2013-07-02 16:17:00,
2013-07-02 12:22:00,79.0,73.0,30.18,West,270,6.0,11.0,82,0.00,,,0.00,meteohub,2013-07-02 16:22:00,
2013-07-02 12:28:00,79.5,73.2,30.19,West,270,18.0,18.0,81,0.00,,,0.00,meteohub,2013-07-02 16:28:00,
2013-07-02 12:33:00,79.7,73.0,30.19,WNW,293,7.0,18.0,80,0.00,,,0.00,meteohub,2013-07-02 16:33:00,
2013-07-02 12:38:00,79.9,73.2,30.19,NW,315,14.0,18.0,80,0.00,,,0.00,meteohub,2013-07-02 16:38:00,
2013-07-02 12:43:00,80.2,73.6,30.19,NW,315,10.0,18.0,80,0.00,,,0.00,meteohub,2013-07-02 16:43:00,
2013-07-02 12:48:00,80.4,73.8,30.19,WSW,248,13.0,14.0,80,0.00,,,0.00,meteohub,2013-07-02 16:48:00,
2013-07-02 12:54:00,80.4,73.8,30.19,WSW,248,14.0,14.0,80,0.00,,,0.00,meteohub,2013-07-02 16:54:00,
2013-07-02 12:59:00,80.8,73.9,30.19,West,270,15.0,15.0,80,0.00,,,0.00,meteohub,2013-07-02 16:59:00,
2013-07-02 13:04:00,80.8,73.9,30.19,West,270,9.0,17.0,80,0.00,,,0.00,meteohub,2013-07-02 17:04:00,
2013-07-02 13:09:00,81.0,73.8,30.19,West,270,11.0,17.0,79,0.00,,,0.00,meteohub,2013-07-02 17:09:00,
2013-07-02 13:14:00,81.0,73.8,30.19,WNW,293,11.0,17.0,79,0.00,,,0.00,meteohub,2013-07-02 17:14:00,
2013-07-02 13:20:00,81.1,73.9,30.19,SW,225,8.0,16.0,79,0.00,,,0.00,meteohub,2013-07-02 17:20:00,
2013-07-02 13:25:00,81.1,73.6,30.18,West,270,14.0,14.0,78,0.00,,,0.00,meteohub,2013-07-02 17:25:00,
2013-07-02 13:30:00,80.8,73.2,30.18,WSW,248,9.0,16.0,78,0.00,,,0.00,meteohub,2013-07-02 17:30:00,
2013-07-02 13:35:00,81.1,73.6,30.18,West,270,13.0,16.0,78,0.00,,,0.00,meteohub,2013-07-02 17:35:00,
2013-07-02 13:41:00,81.5,73.9,30.18,WSW,248,12.0,16.0,78,0.00,,,0.00,meteohub,2013-07-02 17:41:00,
2013-07-02 13:46:00,81.7,74.1,30.18,WSW,248,10.0,13.0,78,0.00,,,0.00,meteohub,2013-07-02 17:46:00,
2013-07-02 13:52:00,81.7,74.1,30.18,WNW,293,11.0,13.0,78,0.00,,,0.00,meteohub,2013-07-02 17:52:00,
2013-07-02 13:57:00,81.7,74.5,30.18,WSW,248,5.0,12.0,79,0.00,,,0.00,meteohub,2013-07-02 17:57:00,
2013-07-02 14:02:00,81.9,74.3,30.18,WNW,293,9.0,14.0,78,0.00,,,0.00,meteohub,2013-07-02 18:02:00,
2013-07-02 14:07:00,82.2,74.7,30.18,NNW,338,9.0,14.0,78,0.00,,,0.00,meteohub,2013-07-02 18:07:00,
2013-07-02 14:12:00,82.2,74.7,30.18,West,270,5.0,11.0,78,0.00,,,0.00,meteohub,2013-07-02 18:12:00,
2013-07-02 14:17:00,82.2,74.7,30.18,WSW,248,7.0,11.0,78,0.00,,,0.00,meteohub,2013-07-02 18:17:00,
2013-07-02 14:22:00,81.9,73.9,30.18,WSW,248,9.0,11.0,77,0.00,,,0.00,meteohub,2013-07-02 18:22:00,
2013-07-02 14:27:00,80.8,72.9,30.17,SW,225,11.0,11.0,77,0.00,,,0.00,meteohub,2013-07-02 18:27:00,
2013-07-02 14:32:00,80.2,72.3,30.17,SSW,203,7.0,11.0,77,0.00,,,0.00,meteohub,2013-07-02 18:32:00,
2013-07-02 14:37:00,80.1,72.1,30.17,SW,225,9.0,11.0,77,0.00,,,0.00,meteohub,2013-07-02 18:37:00,
2013-07-02 14:43:00,79.5,71.6,30.17,SW,225,9.0,11.0,77,0.00,,,0.00,meteohub,2013-07-02 18:43:00,
2013-07-02 14:48:00,79.9,72.3,30.17,WSW,248,9.0,11.0,78,0.00,,,0.00,meteohub,2013-07-02 18:48:00,
2013-07-02 14:53:00,81.1,73.6,30.17,WSW,248,8.0,11.0,78,0.00,,,0.00,meteohub,2013-07-02 18:53:00,
2013-07-02 14:58:00,82.9,75.4,30.17,WSW,248,7.0,9.0,78,0.00,,,0.00,meteohub,2013-07-02 18:58:00,
2013-07-02 15:03:00,83.3,75.4,30.16,WSW,248,12.0,12.0,77,0.00,,,0.00,meteohub,2013-07-02 19:03:00,
2013-07-02 15:08:00,83.7,75.2,30.16,WSW,248,9.0,9.0,76,0.00,,,0.00,meteohub,2013-07-02 19:08:00,
2013-07-02 15:14:00,83.3,75.0,30.16,ENE,68,4.0,12.0,76,0.00,,,0.00,meteohub,2013-07-02 19:14:00,
2013-07-02 15:19:00,83.1,74.8,30.16,SW,225,6.0,12.0,76,0.00,,,0.00,meteohub,2013-07-02 19:19:00,
2013-07-02 15:24:00,83.3,75.0,30.17,WNW,293,12.0,12.0,76,0.00,,,0.00,meteohub,2013-07-02 19:24:00,
2013-07-02 15:29:00,83.8,75.4,30.17,West,270,10.0,14.0,76,0.00,,,0.00,meteohub,2013-07-02 19:29:00,
2013-07-02 15:34:00,84.4,75.6,30.17,WSW,248,8.0,14.0,75,0.00,,,0.00,meteohub,2013-07-02 19:34:00,
2013-07-02 15:40:00,83.3,74.5,30.17,NW,315,8.0,12.0,75,0.00,,,0.00,meteohub,2013-07-02 19:40:00,
2013-07-02 15:45:00,82.6,73.8,30.16,WSW,248,13.0,13.0,75,0.00,,,0.00,meteohub,2013-07-02 19:45:00,
2013-07-02 15:50:00,82.4,73.8,30.16,SW,225,10.0,13.0,75,0.00,,,0.00,meteohub,2013-07-02 19:50:00,
2013-07-02 15:56:00,82.9,74.7,30.16,West,270,12.0,13.0,76,0.00,,,0.00,meteohub,2013-07-02 19:56:00,
2013-07-02 16:01:00,82.4,73.8,30.16,WNW,293,15.0,15.0,75,0.00,,,0.00,meteohub,2013-07-02 20:01:00,
2013-07-02 16:06:00,81.3,73.0,30.15,West,270,15.0,15.0,76,0.00,,,0.00,meteohub,2013-07-02 20:06:00,
2013-07-02 16:11:00,80.8,72.9,30.15,WNW,293,8.0,16.0,77,0.00,,,0.00,meteohub,2013-07-02 20:11:00,
2013-07-02 16:16:00,80.4,72.5,30.15,West,270,7.0,16.0,77,0.00,,,0.00,meteohub,2013-07-02 20:16:00,
2013-07-02 16:21:00,80.4,72.9,30.15,WNW,293,12.0,16.0,78,0.00,,,0.00,meteohub,2013-07-02 20:21:00,
2013-07-02 16:27:00,82.4,74.8,30.16,WSW,248,11.0,18.0,78,0.00,,,0.00,meteohub,2013-07-02 20:27:00,
2013-07-02 16:32:00,83.1,74.3,30.16,South,180,10.0,18.0,75,0.00,,,0.00,meteohub,2013-07-02 20:32:00,
2013-07-02 16:37:00,82.4,73.2,30.16,SW,225,7.0,18.0,74,0.00,,,0.00,meteohub,2013-07-02 20:37:00,
2013-07-02 16:42:00,82.6,73.8,30.16,WSW,248,8.0,11.0,75,0.00,,,0.00,meteohub,2013-07-02 20:42:00,
2013-07-02 16:48:00,83.5,74.7,30.16,WSW,248,9.0,11.0,75,0.00,,,0.00,meteohub,2013-07-02 20:48:00,
2013-07-02 16:53:00,84.0,74.5,30.16,SW,225,6.0,11.0,73,0.00,,,0.00,meteohub,2013-07-02 20:53:00,
2013-07-02 16:58:00,84.4,74.8,30.16,WNW,293,8.0,9.0,73,0.00,,,0.00,meteohub,2013-07-02 20:58:00,
2013-07-02 17:03:00,84.6,75.0,30.16,SW,225,6.0,9.0,73,0.00,,,0.00,meteohub,2013-07-02 21:03:00,
2013-07-02 17:08:00,84.7,75.2,30.16,West,270,8.0,8.0,73,0.00,,,0.00,meteohub,2013-07-02 21:08:00,
2013-07-02 17:13:00,84.7,74.7,30.16,WSW,248,9.0,12.0,72,0.00,,,0.00,meteohub,2013-07-02 21:13:00,
2013-07-02 17:19:00,84.6,74.5,30.16,SW,225,11.0,12.0,72,0.00,,,0.00,meteohub,2013-07-02 21:19:00,
2013-07-02 17:24:00,84.0,73.2,30.16,SW,225,13.0,13.0,70,0.00,,,0.00,meteohub,2013-07-02 21:24:00,
2013-07-02 17:29:00,83.8,73.4,30.16,SW,225,13.0,13.0,71,0.00,,,0.00,meteohub,2013-07-02 21:29:00,
2013-07-02 17:35:00,83.7,73.2,30.16,WSW,248,12.0,13.0,71,0.00,,,0.00,meteohub,2013-07-02 21:35:00,
2013-07-02 17:40:00,82.9,72.5,30.16,WSW,248,12.0,13.0,71,0.00,,,0.00,meteohub,2013-07-02 21:40:00,
2013-07-02 17:45:00,81.9,71.6,30.16,WSW,248,12.0,13.0,71,0.00,,,0.00,meteohub,2013-07-02 21:45:00,
2013-07-02 17:50:00,81.9,72.0,30.16,West,270,17.0,17.0,72,0.00,,,0.00,meteohub,2013-07-02 21:50:00,
2013-07-02 17:55:00,81.9,72.3,30.16,WSW,248,12.0,17.0,73,0.00,,,0.00,meteohub,2013-07-02 21:55:00,
2013-07-02 18:00:00,82.2,72.3,30.16,SW,225,9.0,17.0,72,0.00,,,0.00,meteohub,2013-07-02 22:00:00,
2013-07-02 18:06:00,82.0,72.5,30.17,West,270,12.0,17.0,73,0.00,,,0.00,meteohub,2013-07-02 22:06:00,
2013-07-02 18:11:00,82.2,72.3,30.17,SW,225,11.0,12.0,72,0.00,,,0.00,meteohub,2013-07-02 22:11:00,
2013-07-02 18:16:00,81.9,72.0,30.17,WSW,248,12.0,12.0,72,0.00,,,0.00,meteohub,2013-07-02 22:16:00,
2013-07-02 18:21:00,81.7,71.8,30.17,SSW,203,11.0,12.0,72,0.00,,,0.00,meteohub,2013-07-02 22:21:00,
2013-07-02 18:27:00,80.6,70.7,30.17,WSW,248,15.0,15.0,72,0.00,,,0.00,meteohub,2013-07-02 22:27:00,
2013-07-02 18:32:00,79.5,70.2,30.17,ENE,68,16.0,16.0,73,0.00,,,0.00,meteohub,2013-07-02 22:32:00,
2013-07-02 18:37:00,78.8,69.8,30.17,SW,225,10.0,16.0,74,0.00,,,0.00,meteohub,2013-07-02 22:37:00,
2013-07-02 18:42:00,78.6,70.0,30.17,SW,225,17.0,17.0,75,0.00,,,0.00,meteohub,2013-07-02 22:42:00,
2013-07-02 18:47:00,77.7,69.6,30.18,WSW,248,11.0,18.0,76,0.00,,,0.00,meteohub,2013-07-02 22:47:00,
2013-07-02 18:52:00,77.2,69.4,30.18,SW,225,13.0,18.0,77,0.00,,,0.00,meteohub,2013-07-02 22:52:00,
2013-07-02 18:57:00,76.6,68.9,30.18,SW,225,10.0,17.0,77,0.00,,,0.00,meteohub,2013-07-02 22:57:00,
2013-07-02 19:02:00,76.1,68.7,30.19,SW,225,14.0,16.0,78,0.00,,,0.00,meteohub,2013-07-02 23:02:00,
2013-07-02 19:08:00,75.7,68.7,30.19,WSW,248,14.0,15.0,79,0.00,,,0.00,meteohub,2013-07-02 23:08:00,
2013-07-02 19:13:00,75.7,69.1,30.19,WSW,248,13.0,14.0,80,0.00,,,0.00,meteohub,2013-07-02 23:13:00,
2013-07-02 19:19:00,75.2,68.5,30.19,WSW,248,9.0,14.0,80,0.00,,,0.00,meteohub,2013-07-02 23:19:00,
2013-07-02 19:24:00,75.0,68.4,30.19,WSW,248,9.0,14.0,80,0.00,,,0.00,meteohub,2013-07-02 23:24:00,
2013-07-02 19:29:00,75.0,68.7,30.19,NW,315,11.0,13.0,81,0.00,,,0.00,meteohub,2013-07-02 23:29:00,
2013-07-02 19:32:00,74.5,68.2,30.19,WSW,248,11.0,12.0,81,0.00,,,0.00,meteohub,2013-07-02 23:32:00,
2013-07-02 19:37:00,74.3,68.0,30.19,WSW,248,13.0,13.0,81,0.00,,,0.00,meteohub,2013-07-02 23:37:00,
2013-07-02 19:42:00,73.8,67.6,30.19,WSW,248,11.0,14.0,81,0.00,,,0.00,meteohub,2013-07-02 23:42:00,
2013-07-02 19:48:00,73.9,68.2,30.19,SW,225,11.0,14.0,82,0.00,,,0.00,meteohub,2013-07-02 23:48:00,
2013-07-02 19:53:00,73.6,67.8,30.19,SW,225,10.0,14.0,82,0.00,,,0.00,meteohub,2013-07-02 23:53:00,
2013-07-02 19:55:00,73.6,67.8,30.19,SSW,203,10.0,13.0,82,0.00,,,0.00,meteohub,2013-07-02 23:55:00,
2013-07-02 20:00:00,73.6,67.8,30.19,WSW,248,7.0,13.0,82,0.00,,,0.00,meteohub,2013-07-03 00:00:00,
2013-07-02 20:01:00,73.6,67.8,30.19,WSW,248,7.0,13.0,82,0.00,,,0.00,meteohub,2013-07-03 00:01:00,
2013-07-02 20:06:00,73.4,68.0,30.19,WSW,248,9.0,13.0,83,0.00,,,0.00,meteohub,2013-07-03 00:06:00,
2013-07-02 20:11:00,73.2,67.8,30.19,West,270,8.0,13.0,83,0.00,,,0.00,meteohub,2013-07-03 00:11:00,
2013-07-02 20:16:00,73.0,68.0,30.19,WSW,248,9.0,13.0,84,0.00,,,0.00,meteohub,2013-07-03 00:16:00,
2013-07-02 20:22:00,72.9,67.8,30.19,SW,225,6.0,13.0,84,0.00,,,0.00,meteohub,2013-07-03 00:22:00,
2013-07-02 20:27:00,72.9,67.8,30.19,WSW,248,9.0,9.0,84,0.00,,,0.00,meteohub,2013-07-03 00:27:00,
2013-07-02 20:31:00,72.9,68.0,30.19,West,270,9.0,11.0,85,0.00,,,0.00,meteohub,2013-07-03 00:31:00,
2013-07-02 20:33:00,73.0,68.2,30.19,WSW,248,9.0,11.0,85,0.00,,,0.00,meteohub,2013-07-03 00:33:00,
2013-07-02 20:38:00,73.0,68.2,30.19,WSW,248,9.0,11.0,85,0.00,,,0.00,meteohub,2013-07-03 00:38:00,
2013-07-02 20:43:00,73.2,68.4,30.19,ENE,68,5.0,12.0,85,0.00,,,0.00,meteohub,2013-07-03 00:43:00,
2013-07-02 20:48:00,73.0,68.2,30.19,WSW,248,6.0,12.0,85,0.00,,,0.00,meteohub,2013-07-03 00:48:00,
2013-07-02 20:54:00,73.2,68.4,30.19,WSW,248,8.0,12.0,85,0.00,,,0.00,meteohub,2013-07-03 00:54:00,
2013-07-02 20:59:00,73.0,68.2,30.19,WNW,293,10.0,10.0,85,0.00,,,0.00,meteohub,2013-07-03 00:59:00,
2013-07-02 21:02:00,73.0,68.2,30.20,WSW,248,6.0,9.0,85,0.00,,,0.00,meteohub,2013-07-03 01:02:00,
2013-07-02 21:03:00,73.0,68.2,30.20,WSW,248,6.0,9.0,85,0.00,,,0.00,meteohub,2013-07-03 01:03:00,
2013-07-02 21:08:00,72.9,68.0,30.20,WSW,248,7.0,10.0,85,0.00,,,0.00,meteohub,2013-07-03 01:08:00,
2013-07-02 21:14:00,72.9,68.0,30.20,West,270,11.0,12.0,85,0.00,,,0.00,meteohub,2013-07-03 01:14:00,
2013-07-02 21:15:00,72.9,68.0,30.20,WSW,248,12.0,12.0,85,0.00,,,0.00,meteohub,2013-07-03 01:15:00,
2013-07-02 21:20:00,73.0,68.5,30.20,WNW,293,7.0,12.0,86,0.00,,,0.00,meteohub,2013-07-03 01:20:00,
2013-07-02 21:25:00,72.7,68.2,30.20,WNW,293,5.0,13.0,86,0.00,,,0.00,meteohub,2013-07-03 01:25:00,
2013-07-02 21:30:00,72.7,68.2,30.20,WNW,293,9.0,13.0,86,0.00,,,0.00,meteohub,2013-07-03 01:30:00,
2013-07-02 21:32:00,72.5,68.0,30.20,West,270,5.0,13.0,86,0.00,,,0.00,meteohub,2013-07-03 01:32:00,
2013-07-02 21:37:00,72.5,68.0,30.20,WSW,248,4.0,13.0,86,0.00,,,0.00,meteohub,2013-07-03 01:37:00,
2013-07-02 21:43:00,72.5,68.0,30.21,West,270,5.0,9.0,86,0.00,,,0.00,meteohub,2013-07-03 01:43:00,
2013-07-02 21:48:00,72.3,67.8,30.21,West,270,5.0,9.0,86,0.00,,,0.00,meteohub,2013-07-03 01:48:00,
2013-07-02 21:49:00,72.3,67.8,30.21,WSW,248,4.0,9.0,86,0.00,,,0.00,meteohub,2013-07-03 01:49:00,
2013-07-02 21:50:00,72.3,67.8,30.21,West,270,5.0,9.0,86,0.00,,,0.00,meteohub,2013-07-03 01:50:00,
2013-07-02 21:56:00,72.5,68.0,30.21,West,270,11.0,11.0,86,0.00,,,0.00,meteohub,2013-07-03 01:56:00,
2013-07-02 22:01:00,72.5,68.4,30.21,WSW,248,7.0,11.0,87,0.00,,,0.00,meteohub,2013-07-03 02:01:00,
2013-07-02 22:07:00,72.5,68.4,30.21,WNW,293,7.0,11.0,87,0.00,,,0.00,meteohub,2013-07-03 02:07:00,
2013-07-02 22:12:00,72.5,68.4,30.21,WSW,248,6.0,11.0,87,0.00,,,0.00,meteohub,2013-07-03 02:12:00,
2013-07-02 22:17:00,72.5,68.4,30.21,NW,315,9.0,12.0,87,0.00,,,0.00,meteohub,2013-07-03 02:17:00,
2013-07-02 22:22:00,72.5,68.4,30.21,WNW,293,9.0,12.0,87,0.00,,,0.00,meteohub,2013-07-03 02:22:00,
2013-07-02 22:28:00,72.5,68.4,30.21,West,270,4.0,9.0,87,0.00,,,0.00,meteohub,2013-07-03 02:28:00,
2013-07-02 22:33:00,72.7,68.5,30.21,West,270,10.0,10.0,87,0.00,,,0.00,meteohub,2013-07-03 02:33:00,
2013-07-02 22:34:00,72.7,68.5,30.21,West,270,10.0,10.0,87,0.00,,,0.00,meteohub,2013-07-03 02:34:00,
2013-07-02 22:39:00,72.7,68.5,30.21,West,270,5.0,12.0,87,0.00,,,0.00,meteohub,2013-07-03 02:39:00,
2013-07-02 22:44:00,72.7,68.5,30.21,West,270,6.0,12.0,87,0.00,,,0.00,meteohub,2013-07-03 02:44:00,
2013-07-02 22:47:00,72.9,68.7,30.21,WNW,293,7.0,12.0,87,0.00,,,0.00,meteohub,2013-07-03 02:47:00,
2013-07-02 22:52:00,72.5,68.4,30.21,NW,315,9.0,12.0,87,0.00,,,0.00,meteohub,2013-07-03 02:52:00,
2013-07-02 22:57:00,72.5,68.4,30.21,NW,315,10.0,12.0,87,0.00,,,0.00,meteohub,2013-07-03 02:57:00,
2013-07-02 23:02:00,72.5,68.4,30.21,WSW,248,6.0,10.0,87,0.00,,,0.00,meteohub,2013-07-03 03:02:00,
2013-07-02 23:03:00,72.5,68.4,30.21,WNW,293,11.0,11.0,87,0.00,,,0.00,meteohub,2013-07-03 03:03:00,
2013-07-02 23:08:00,72.3,68.2,30.21,West,270,9.0,11.0,87,0.00,,,0.00,meteohub,2013-07-03 03:08:00,
2013-07-02 23:14:00,72.3,68.2,30.21,WSW,248,7.0,11.0,87,0.00,,,0.00,meteohub,2013-07-03 03:14:00,
2013-07-02 23:19:00,72.5,68.7,30.21,NNE,23,6.0,11.0,88,0.00,,,0.00,meteohub,2013-07-03 03:19:00,
2013-07-02 23:20:00,72.5,68.7,30.21,NNE,23,6.0,11.0,88,0.00,,,0.00,meteohub,2013-07-03 03:20:00,
2013-07-02 23:26:00,72.3,68.5,30.21,WNW,293,5.0,11.0,88,0.00,,,0.00,meteohub,2013-07-03 03:26:00,
2013-07-02 23:31:00,72.3,68.5,30.21,WSW,248,8.0,11.0,88,0.00,,,0.00,meteohub,2013-07-03 03:31:00,
2013-07-02 23:35:00,72.1,68.4,30.21,West,270,11.0,13.0,88,0.00,,,0.00,meteohub,2013-07-03 03:35:00,
2013-07-02 23:40:00,72.3,68.5,30.21,West,270,12.0,13.0,88,0.00,,,0.00,meteohub,2013-07-03 03:40:00,
2013-07-02 23:45:00,72.3,68.5,30.21,West,270,10.0,12.0,88,0.00,,,0.00,meteohub,2013-07-03 03:45:00,
2013-07-02 23:49:00,72.5,68.7,30.21,NW,315,9.0,12.0,88,0.00,,,0.00,meteohub,2013-07-03 03:49:00,
2013-07-02 23:54:00,72.3,68.5,30.21,NW,315,8.0,12.0,88,0.00,,,0.00,meteohub,2013-07-03 03:54:00,
2013-07-02 23:59:00,72.5,68.7,30.21,WNW,293,13.0,13.0,88,0.00,,,0.00,meteohub,2013-07-03 03:59:00,